Location: Leuk
(46.3174°N, 7.6341°E)
Time: 14:51:48
(UTC+00:00)

CZ-4B R/B - Pass Details

Date: 09 March 2021
Orbit: 496 x 646 km, 97.8° (Epoch: 19 April)

Event Time Altitude Azimuth Distance (km) Brightness Sun altitude
Rises 05:01:59 0° 6° (N) 2,636 7.4 -9.8°
Reaches altitude 10° 05:04:11 10° 358° (N) 1,730 6.4 -9.4°
Maximum altitude 05:07:38 39° 290° (WNW) 767 4.1 -8.8°
Drops below altitude 10° 05:11:02 10° 220° (SW) 1,693 5.9 -8.2°
Sets 05:13:10 0° 213° (SSW) 2,572 6.9 -7.8°
